Weather History for KVWU - January, 2013

Change the Weather History Date:

Saturday, January 5, 2013

  Actual Average (KBDE) Record (KBDE)
Temperature  
Mean Temperature 11 °F -  
Max Temperature 24 °F 12 °F 48 °F (2012)
Min Temperature -2 °F -5 °F -40 °F (1937)
Degree Days  
Heating Degree Days 54    
Moisture  
Dew Point 6 °F    
Average Humidity 85    
Maximum Humidity 93    
Minimum Humidity 74    
Precipitation  
Precipitation 0.00 in - - ()
Sea Level Pressure  
Sea Level Pressure 29.96 in    
Wind  
Wind Speed 1 mph (NW)    
Max Wind Speed 8 mph    
Max Gust Speed -    
Visibility 10 miles    
Events      
Averages and records for this station are not official NWS values.
T = Trace of Precipitation, MM = Missing Value Source: NWS Daily Summary

Daily Weather History Graph

Daily Weather History Graph

Search for Another Location

Airport or City:

Trip Planner

Search our weather history database for the weather conditions in past years. The results will help you decide how hot, cold, wet, or windy it might be!

Date:

Astronomy

Jan. 05, 2013 Rise Set
Actual Time 8:08 AM CST 4:39 PM CST
Civil Twilight 7:31 AM CST 5:15 PM CST
Nautical Twilight 6:52 AM CST 5:55 PM CST
Astronomical Twilight 6:14 AM CST 6:32 PM CST
Moon 12:59 AM CST (1/5) 11:44 AM CST (1/5)
Length of Visible Light 9h 43m
Length of Day
8h 31m
Last Quarter, 44% of the Moon is Illuminated
Jan 5
Last Quarter
Jan 11
New
Jan 18
First Quarter
Jan 26
Full
Feb 3
Last Quarter

Hourly Weather History & Observations

Time (CST) Temp. Windchill Dew Point Humidity Pressure Visibility Wind Dir Wind Speed Gust Speed Precip Events Conditions
12:05 AM -0.4 °F - -4.0 °F 85% 30.03 in 10.0 mi Calm Calm - N/A   Clear
12:25 AM -0.4 °F - -4.0 °F 85% 30.03 in 10.0 mi Calm Calm - N/A   Clear
12:45 AM -0.4 °F - -5.8 °F 78% 30.02 in 10.0 mi Calm Calm - N/A   Clear
1:05 AM -2.2 °F - -5.8 °F 85% 30.02 in 10.0 mi Calm Calm - N/A   Clear
1:25 AM -2.2 °F - -5.8 °F 85% 30.01 in 10.0 mi Calm Calm - N/A   Clear
1:45 AM -2.2 °F - -5.8 °F 85% 30.01 in 10.0 mi Calm Calm - N/A   Clear
2:05 AM -2.2 °F - -5.8 °F 85% 30.01 in 10.0 mi Calm Calm - N/A   Clear
2:25 AM -2.2 °F - -5.8 °F 85% 30.00 in 10.0 mi Calm Calm - N/A   Clear
2:45 AM -2.2 °F - -5.8 °F 85% 30.00 in 10.0 mi Calm Calm - N/A   Clear
3:05 AM -2.2 °F - -5.8 °F 85% 30.00 in 10.0 mi Calm Calm - N/A   Clear
3:25 AM -2.2 °F - -5.8 °F 85% 29.99 in 10.0 mi Calm Calm - N/A   Clear
3:45 AM -2.2 °F - -7.6 °F 78% 29.98 in 10.0 mi Calm Calm - N/A   Clear
4:05 AM -2.2 °F - -5.8 °F 85% 29.97 in 10.0 mi Calm Calm - N/A   Clear
4:25 AM -2.2 °F - -7.6 °F 78% 29.97 in 10.0 mi Calm Calm - N/A   Clear
4:45 AM -2.2 °F - -5.8 °F 85% 29.96 in 10.0 mi Calm Calm - N/A   Clear
5:05 AM -2.2 °F - -5.8 °F 85% 29.96 in 10.0 mi Calm Calm - N/A   Clear
5:26 AM -0.4 °F - -4.0 °F 85% 29.96 in 10.0 mi Calm Calm - N/A   Clear
5:45 AM -0.4 °F -8.3 °F -5.8 °F 78% 29.94 in 10.0 mi ESE 3.5 mph - N/A   Clear
6:05 AM -0.4 °F - -2.2 °F 92% 29.94 in 10.0 mi Calm Calm - N/A   Clear
6:25 AM 1.4 °F - -0.4 °F 92% 29.94 in 10.0 mi Calm Calm - N/A   Clear
6:45 AM 1.4 °F - -0.4 °F 92% 29.94 in 10.0 mi Calm Calm - N/A   Clear
7:05 AM 1.4 °F - -2.2 °F 85% 29.94 in 10.0 mi Calm Calm - N/A   Clear
7:26 AM 1.4 °F - -2.2 °F 85% 29.93 in 10.0 mi Calm Calm - N/A   Clear
7:45 AM 1.4 °F -6.2 °F -0.4 °F 92% 29.93 in 10.0 mi ENE 3.5 mph - N/A   Clear
8:05 AM 1.4 °F - -0.4 °F 92% 29.94 in 10.0 mi Calm Calm - N/A   Clear
8:26 AM 3.2 °F - -0.4 °F 85% 29.94 in 10.0 mi Calm Calm - N/A   Clear
8:45 AM 5.0 °F -2.1 °F 1.4 °F 85% 29.94 in 10.0 mi ENE 3.5 mph - N/A   Clear
9:05 AM 6.8 °F - 3.2 °F 85% 29.94 in 10.0 mi Calm Calm - N/A   Clear
9:45 AM 10.4 °F - 8.6 °F 92% 29.94 in 10.0 mi Calm Calm - N/A   Clear
10:05 AM 14.0 °F - 12.2 °F 93% 29.95 in 10.0 mi Calm Calm - N/A   Clear
10:45 AM 15.8 °F 10.2 °F 12.2 °F 86% 29.95 in 10.0 mi NE 3.5 mph - N/A   Mostly Cloudy
11:05 AM 17.6 °F 12.3 °F 15.8 °F 93% 29.94 in 10.0 mi NE 3.5 mph - N/A   Mostly Cloudy
11:26 AM 19.4 °F - 17.6 °F 93% 29.94 in 10.0 mi Calm Calm - N/A   Scattered Clouds
11:45 AM 17.6 °F 12.3 °F 15.8 °F 93% 29.93 in 10.0 mi NE 3.5 mph - N/A   Mostly Cloudy
12:05 PM 19.4 °F 14.3 °F 17.6 °F 93% 29.92 in 10.0 mi NE 3.5 mph - N/A   Overcast
12:25 PM 19.4 °F - 17.6 °F 93% 29.92 in 10.0 mi Calm Calm - N/A   Overcast
12:45 PM 19.4 °F - 17.6 °F 93% 29.91 in 10.0 mi Calm Calm - N/A   Overcast
1:05 PM 23.0 °F - 19.4 °F 86% 29.90 in 10.0 mi Calm Calm - N/A   Overcast
1:25 PM 24.8 °F - 17.6 °F 74% 29.90 in 10.0 mi Calm Calm - N/A   Overcast
1:45 PM 24.8 °F 17.9 °F 19.4 °F 80% 29.90 in 10.0 mi North 5.8 mph - N/A   Overcast
2:05 PM 23.0 °F 15.8 °F 17.6 °F 80% 29.91 in 10.0 mi North 5.8 mph - N/A   Overcast
2:25 PM 23.0 °F 17.0 °F 17.6 °F 80% 29.91 in 10.0 mi North 4.6 mph - N/A   Mostly Cloudy
2:45 PM 24.8 °F 20.5 °F 17.6 °F 74% 29.90 in 10.0 mi NNE 3.5 mph - N/A   Mostly Cloudy
3:05 PM 24.8 °F 19.1 °F 17.6 °F 74% 29.91 in 10.0 mi NNW 4.6 mph - N/A   Overcast
3:25 PM 23.0 °F 17.0 °F 17.6 °F 80% 29.92 in 10.0 mi NNW 4.6 mph - N/A   Overcast
3:45 PM 21.2 °F 11.7 °F 15.8 °F 80% 29.94 in 10.0 mi NNW 8.1 mph - N/A   Scattered Clouds
4:05 PM 21.2 °F 12.6 °F 15.8 °F 80% 29.94 in 10.0 mi North 6.9 mph - N/A   Mostly Cloudy
4:45 PM 19.4 °F 11.5 °F 15.8 °F 86% 29.95 in 10.0 mi NNW 5.8 mph - N/A   Overcast
5:06 PM 19.4 °F - 14.0 °F 80% 29.95 in 10.0 mi Calm Calm - N/A   Overcast
5:25 PM 17.6 °F 12.3 °F 14.0 °F 86% 29.95 in 10.0 mi NNW 3.5 mph - N/A   Mostly Cloudy
5:45 PM 17.6 °F 10.7 °F 12.2 °F 79% 29.97 in 10.0 mi NW 4.6 mph - N/A   Scattered Clouds
6:05 PM 15.8 °F 8.6 °F 10.4 °F 79% 29.97 in 10.0 mi NW 4.6 mph - N/A   Scattered Clouds
6:25 PM 14.0 °F 8.2 °F 8.6 °F 79% 29.96 in 10.0 mi WNW 3.5 mph - N/A   Scattered Clouds
6:45 PM 12.2 °F 4.3 °F 8.6 °F 85% 29.98 in 10.0 mi WNW 4.6 mph - N/A   Clear
7:06 PM 14.0 °F 5.1 °F 8.6 °F 79% 29.99 in 10.0 mi WNW 5.8 mph - N/A   Clear
7:25 PM 12.2 °F 4.3 °F 8.6 °F 85% 29.99 in 10.0 mi NW 4.6 mph - N/A   Clear
8:06 PM 10.4 °F 4.0 °F 6.8 °F 85% 30.00 in 10.0 mi West 3.5 mph - N/A   Clear
8:25 PM 10.4 °F - 6.8 °F 85% 30.01 in 10.0 mi Calm Calm - N/A   Clear
8:45 PM 8.6 °F 2.0 °F 6.8 °F 92% 30.00 in 10.0 mi WSW 3.5 mph - N/A   Clear
9:05 PM 8.6 °F - 6.8 °F 92% 30.00 in 10.0 mi Calm Calm - N/A   Scattered Clouds
9:25 PM 8.6 °F 2.0 °F 6.8 °F 92% 30.01 in 10.0 mi WSW 3.5 mph - N/A   Clear
9:45 PM 6.8 °F -3.5 °F 3.2 °F 85% 30.01 in 10.0 mi WSW 5.8 mph - N/A   Clear
10:05 PM 6.8 °F -4.8 °F 3.2 °F 85% 30.01 in 10.0 mi WSW 6.9 mph - N/A   Clear
10:25 PM 6.8 °F -4.8 °F 3.2 °F 85% 30.01 in 10.0 mi WSW 6.9 mph - N/A   Clear
10:44 PM 6.8 °F -4.8 °F 3.2 °F 85% 30.02 in 10.0 mi WSW 6.9 mph - N/A   Scattered Clouds
11:05 PM - - 30.2 °F N/A% 30.02 in 10.0 mi WSW 5.8 mph - N/A   Overcast
11:25 PM 8.6 °F 2.0 °F 5.0 °F 85% 30.01 in 10.0 mi WSW 3.5 mph - N/A   Overcast